Find OneWeb SL0657

NORAD ID: 55818 Int'l Des: 2023-029 Owner: ONEWEBN Country: UK Constellation: oneweb operational
LEOCIRCULARPOLARONEWEB_TYPE

当前视图

正在加载3D地球...

About OneWeb SL0657

OneWeb SL0657 (NORAD 55818) is a oneweb constellation satellite launched Mar 9, 2023 by ONEWEBN of UK. It operates in LEO, CIRCULAR, POLAR, ONEWEB_TYPE orbit with a mass of 148.00 kg.

关于 OneWeb SL0657

正在加载描述...

即将过境

Passes for default location (London). Set your location on the main map for personalized predictions.

高度历史

Loading altitude history...

两行轨道根数

1 55818U 23029Y 26194.83633426 .00000031 00000-0 45382-4 0 9990
2 55818 87.9185 299.6672 0002269 79.8609 280.2779 13.19726733162428
Epoch: Jul 13, 2026 • Age: 11 hours

当前状态

高度 1192.0 km
远地点 / 近地点 N/A
速度 7.26 km/s
星下点 -15.14°S, 96.85°W
发射日期 Mar 9, 2023
运行时间 3.3 years
类型 internet

技术详情

分类 Payload
质量 148.00 kg
干质量 140.00 kg
总质量 148.00 kg
长度 1.30 m
直径 1.00 m
跨度 5.00 m
形状 Trapezoid+2 pan
制造商 ONEWUS
平台类型 ARROW
阶段状态 In Orbit
所有者/国家 ONEWEBN/UK

Most Searched